Weather History for Columbia Airport, CA

Change the Weather History Date:

Sunday, August 4, 2013

  Actual Average (KMOD) Record (KMOD)
Temperature  
Mean Temperature 72 °F -  
Max Temperature 91 °F 95 °F 108 °F (1998)
Min Temperature 53 °F 63 °F 51 °F (1934)
Degree Days  
Heating Degree Days 0 0  
Month to date heating degree days 0  
Since 1 June heating degree days 3  
Since 1 July heating degree days 0  
Cooling Degree Days 7 14  
Month to date cooling degree days 56  
Year to date cooling degree days 991  
Since 1 June cooling degree days 792  
Growing Degree Days 22 (Base 50)    
Moisture  
Dew Point 38 °F    
Average Humidity 31    
Maximum Humidity 54    
Minimum Humidity 13    
Precipitation  
Precipitation 0.00 in 0.00 in 0.00 in (2014)
Month to date precipitation 0.00  
Year to date precipitation 8.75  
Since 1 July precipitation T  
Snow  
Snow 0.00 in - - ()
Month to date snowfall  
Since 1 June snowfall  
Since 1 July snowfall  
Snow Depth -    
Sea Level Pressure  
Sea Level Pressure 29.99 in    
Wind  
Wind Speed 2 mph (WSW)    
Max Wind Speed 10 mph    
Max Gust Speed -    
Visibility 10 miles    
Events      
T = Trace of Precipitation, MM = Missing Value Source: NWS Daily Summary

Daily Weather History Graph

Daily Weather History Graph

Search for Another Location

Airport:

Trip Planner

Search our weather history database for the weather conditions in past years. The results will help you decide how hot, cold, wet, or windy it might be!

Date:

Astronomy

Aug. 04, 2013 Rise Set
Actual Time 6:07 AM PDT 8:07 PM PDT
Civil Twilight 5:38 AM PDT 8:36 PM PDT
Nautical Twilight 5:03 AM PDT 9:11 PM PDT
Astronomical Twilight 4:25 AM PDT 9:49 PM PDT
Moon 4:13 AM PDT (8/4) 6:33 PM PDT (8/4)
Length of Visible Light 14h 57m
Length of Day
13h 59m
Waning Crescent, 4% of the Moon is Illuminated
Aug 4
Waning Crescent
Aug 6
New
Aug 14
First Quarter
Aug 20
Full
Aug 28
Last Quarter

Hourly Weather History & Observations

Time (PDT) Temp. Dew Point Humidity Pressure Visibility Wind Dir Wind Speed Gust Speed Precip Events Conditions
12:15 AM 59.0 °F 39.2 °F 48% 29.98 in 10.0 mi Calm Calm - N/A   Clear
12:35 AM 59.0 °F 37.4 °F 45% 29.98 in 10.0 mi Calm Calm - N/A   Clear
12:55 AM 59.0 °F 37.4 °F 45% 29.98 in 10.0 mi Calm Calm - N/A   Clear
1:15 AM 59.0 °F 37.4 °F 45% 29.98 in 10.0 mi Calm Calm - N/A   Clear
1:35 AM 57.2 °F 37.4 °F 48% 29.97 in 10.0 mi Calm Calm - N/A   Clear
1:55 AM 57.2 °F 37.4 °F 48% 29.97 in 10.0 mi Calm Calm - N/A   Clear
2:15 AM 57.2 °F 37.4 °F 48% 29.97 in 10.0 mi Calm Calm - N/A   Clear
2:35 AM 57.2 °F 37.4 °F 48% 29.97 in 10.0 mi NE 3.5 mph - N/A   Clear
2:55 AM 57.2 °F 37.4 °F 48% 29.97 in 10.0 mi Calm Calm - N/A   Clear
3:15 AM 57.2 °F 37.4 °F 48% 29.97 in 10.0 mi Calm Calm - N/A   Clear
3:35 AM 57.2 °F 37.4 °F 48% 29.97 in 10.0 mi Calm Calm - N/A   Partly Cloudy
3:55 AM 57.2 °F 37.4 °F 48% 29.97 in 10.0 mi Calm Calm - N/A   Partly Cloudy
4:15 AM 55.4 °F 37.4 °F 51% 29.97 in 10.0 mi Calm Calm - N/A   Partly Cloudy
4:35 AM 55.4 °F 37.4 °F 51% 29.97 in 10.0 mi Calm Calm - N/A   Partly Cloudy
4:55 AM 55.4 °F 37.4 °F 51% 29.98 in 10.0 mi Calm Calm - N/A   Clear
5:15 AM 55.4 °F 37.4 °F 51% 29.98 in 10.0 mi Calm Calm - N/A   Clear
5:35 AM 53.6 °F 37.4 °F 54% 29.98 in 10.0 mi Calm Calm - N/A   Clear
5:55 AM 55.4 °F 35.6 °F 47% 29.98 in 10.0 mi Calm Calm - N/A   Clear
6:15 AM 55.4 °F 37.4 °F 51% 29.98 in 10.0 mi Calm Calm - N/A   Clear
6:35 AM 57.2 °F 37.4 °F 48% 29.99 in 10.0 mi Calm Calm - N/A   Clear
6:55 AM 59.0 °F 39.2 °F 48% 29.99 in 10.0 mi Calm Calm - N/A   Clear
7:15 AM 62.6 °F 39.2 °F 42% 29.99 in 10.0 mi Calm Calm - N/A   Clear
7:35 AM 66.2 °F 42.8 °F 43% 29.99 in 10.0 mi Calm Calm - N/A   Clear
7:55 AM 71.6 °F 44.6 °F 38% 29.99 in 10.0 mi Calm Calm - N/A   Clear
8:15 AM 75.2 °F 42.8 °F 31% 29.99 in 10.0 mi Calm Calm - N/A   Clear
8:35 AM 78.8 °F 39.2 °F 24% 30.00 in 10.0 mi Calm Calm - N/A   Clear
8:55 AM 80.6 °F 35.6 °F 20% 30.00 in 10.0 mi SSW 3.5 mph - N/A   Clear
9:15 AM 80.6 °F 35.6 °F 20% 30.00 in 10.0 mi SSW 3.5 mph - N/A   Clear
9:35 AM 82.4 °F 35.6 °F 19% 30.00 in 10.0 mi SSW 5.8 mph - N/A   Clear
9:55 AM 84.2 °F 35.6 °F 18% 30.00 in 10.0 mi South 3.5 mph - N/A   Clear
10:15 AM 84.2 °F 35.6 °F 18% 30.00 in 10.0 mi South 4.6 mph - N/A   Clear
10:35 AM 86.0 °F 35.6 °F 17% 30.00 in 10.0 mi South 4.6 mph - N/A   Clear
10:55 AM 86.0 °F 37.4 °F 18% 30.00 in 10.0 mi South 5.8 mph - N/A   Clear
11:15 AM 87.8 °F 35.6 °F 16% 30.00 in 10.0 mi WSW 3.5 mph - N/A   Clear
11:35 AM 86.0 °F 33.8 °F 15% 30.00 in 10.0 mi SSW 4.6 mph - N/A   Clear
11:55 AM 89.6 °F 33.8 °F 14% 30.00 in 10.0 mi SW 6.9 mph - N/A   Clear
12:15 PM 89.6 °F 32.0 °F 13% 30.00 in 10.0 mi WSW 6.9 mph - N/A   Clear
12:35 PM 89.6 °F 32.0 °F 13% 30.00 in 10.0 mi West 8.1 mph - N/A   Clear
12:55 PM 89.6 °F 35.6 °F 15% 29.99 in 10.0 mi SSW 5.8 mph - N/A   Clear
1:15 PM 89.6 °F 37.4 °F 16% 30.00 in 10.0 mi West 8.1 mph - N/A   Clear
1:35 PM 91.4 °F 39.2 °F 16% 30.00 in 10.0 mi SW 9.2 mph - N/A   Clear
1:55 PM 91.4 °F 37.4 °F 15% 30.00 in 10.0 mi WSW 6.9 mph - N/A   Clear
2:15 PM 91.4 °F 35.6 °F 14% 30.00 in 10.0 mi WSW 8.1 mph - N/A   Clear
2:35 PM 91.4 °F 33.8 °F 13% 29.99 in 10.0 mi West 8.1 mph - N/A   Clear
2:55 PM 91.4 °F 33.8 °F 13% 29.99 in 10.0 mi WSW 9.2 mph - N/A   Clear
3:15 PM 89.6 °F 35.6 °F 15% 29.98 in 10.0 mi WSW 6.9 mph - N/A   Clear
3:35 PM 91.4 °F 35.6 °F 14% 29.98 in 10.0 mi WSW 6.9 mph - N/A   Clear
3:55 PM 89.6 °F 35.6 °F 15% 29.98 in 10.0 mi WSW 10.4 mph - N/A   Clear
4:15 PM 89.6 °F 33.8 °F 14% 29.97 in 10.0 mi West 9.2 mph - N/A   Clear
4:35 PM 89.6 °F 32.0 °F 13% 29.97 in 10.0 mi SW 5.8 mph - N/A   Clear
4:55 PM 89.6 °F 35.6 °F 15% 29.97 in 10.0 mi WSW 6.9 mph - N/A   Clear
5:15 PM 87.8 °F 35.6 °F 16% 29.97 in 10.0 mi WSW 6.9 mph - N/A   Clear
5:35 PM 87.8 °F 35.6 °F 16% 29.97 in 10.0 mi West 6.9 mph - N/A   Clear
5:55 PM 86.0 °F 35.6 °F 17% 29.97 in 10.0 mi WSW 5.8 mph - N/A   Clear
6:15 PM 86.0 °F 35.6 °F 17% 29.97 in 10.0 mi WSW 6.9 mph - N/A   Clear
6:35 PM 84.2 °F 37.4 °F 19% 29.97 in 10.0 mi WSW 5.8 mph - N/A   Clear
6:55 PM 84.2 °F 37.4 °F 19% 29.97 in 10.0 mi WSW 5.8 mph - N/A   Clear
7:15 PM 82.4 °F 39.2 °F 21% 29.98 in 10.0 mi West 4.6 mph - N/A   Clear
7:35 PM 80.6 °F 39.2 °F 23% 29.98 in 10.0 mi West 4.6 mph - N/A   Clear
7:55 PM 77.0 °F 41.0 °F 28% 29.98 in 10.0 mi WNW 3.5 mph - N/A   Clear
8:15 PM 73.4 °F 41.0 °F 31% 29.99 in 10.0 mi NW 4.6 mph - N/A   Clear
8:35 PM 73.4 °F 41.0 °F 31% 30.00 in 10.0 mi Calm Calm - N/A   Clear
8:55 PM 71.6 °F 41.0 °F 33% 30.00 in 10.0 mi ENE 3.5 mph - N/A   Clear
9:15 PM 68.0 °F 41.0 °F 37% 30.01 in 10.0 mi ENE 4.6 mph - N/A   Clear
9:35 PM 66.2 °F 41.0 °F 40% 30.01 in 10.0 mi Calm Calm - N/A   Clear
9:55 PM 66.2 °F 41.0 °F 40% 30.01 in 10.0 mi Calm Calm - N/A   Clear
10:15 PM 64.4 °F 42.8 °F 45% 30.01 in 10.0 mi Calm Calm - N/A   Clear
10:35 PM 62.6 °F 42.8 °F 48% 30.01 in 10.0 mi Calm Calm - N/A   Clear
10:55 PM 62.6 °F 42.8 °F 48% 30.01 in 10.0 mi Calm Calm - N/A   Clear
11:15 PM 62.6 °F 41.0 °F 45% 30.01 in 10.0 mi Calm Calm - N/A   Clear
11:35 PM 62.6 °F 42.8 °F 48% 30.01 in 10.0 mi NE 3.5 mph - N/A   Clear
11:55 PM 62.6 °F 42.8 °F 48% 30.01 in 10.0 mi Calm Calm - N/A   Clear